Regional Weather Roundup
Issued by NWS

Home | Current Version | Previous Version | Text Only | Print | Product List | Glossary Off
Versions: 1 2 3 4 5 6 7 8 9 10 11 12 13 14 15 16 17 18 19 20 21 22 23 24 25 26 27 28 29 30 31 32 33 34 35 36 37 38 39 40 41 42 43 44 45 46 47 48 49 50

944
ASUS43 KBIS 241610
RWRND

NORTH DAKOTA REGIONAL WEATHER ROUNDUP
NATIONAL WEATHER SERVICE BISMARCK ND
1100 AM CDT WED MAY 24 2017

NOTE: "FAIR" INDICATES FEW OR NO CLOUDS BELOW 12,000 FEET WITH NO
SIGNIFICANT WEATHER AND/OR OBSTRUCTIONS TO VISIBILITY.


NDZ001>003-009>011-017-241700-
NORTHWEST NORTH DAKOTA

CITY           SKY/WX    TMP DP  RH WIND       PRES   REMARKS
WILLISTON      FAIR      66  38  35 SE24G38   29.48F
MINOT          FAIR      64  35  34 SE23G32   29.63F
MINOT AFB      FAIR      63  35  36 S30       29.61F
$$

NDZ018>021-031>035-040>046-241700-
SOUTHWEST NORTH DAKOTA

CITY           SKY/WX    TMP DP  RH WIND       PRES   REMARKS
BISMARCK       FAIR      60  39  45 S17       29.69F
DICKINSON      FAIR      60  34  37 SE26G37   29.57F
GARRISON         N/A     59  36  42 S21G26    29.65F
HETTINGER ARPT FAIR      60  35  39 S21G30    29.63F
$$

NDZ004>008-012>016-024-026-027-054-241700-
NORTHEAST NORTH DAKOTA

CITY           SKY/WX    TMP DP  RH WIND       PRES   REMARKS
GRAND FORKS    FAIR      62  43  49 SE12      29.77F
GRND FRKS AFB  FAIR      61  43  52 SE13      29.77F
DEVILS LAKE    FAIR      57  42  57 SE17      29.74F
$$

NDZ022-023-025-028>030-036>039-047>053-241700-
SOUTHEAST NORTH DAKOTA

CITY           SKY/WX    TMP DP  RH WIND       PRES   REMARKS
FARGO          FAIR      61  45  55 SE9       29.77F
JAMESTOWN      PTSUNNY   56  43  61 SE16G22   29.74F
$$





USA.gov is the U.S. government's official web portal to all federal, state and local government web resources and services.